sat.trackr.live / text

‹ back to catalog

STARLINK-33789

NORAD 63657 · 2025-083Z

PAYLOAD ACTIVE UNKNOWN

§ Identity

Operator
Country
US
Launch date
2025-04-25
Launch site
AFETR
Launch vehicle
Mass (kg)
RCS (m²)

Purposes: comms

External: N2YO · Heavens-Above · Gunter

§ Orbital elements

Epoch: 2026-05-24T21:35:16.283328Z

Period
94.27 min
Inclination
43.0001°
Eccentricity
0.0001315
Mean motion
15.27595143 rev/d
Perigee alt
482.1 km
Apogee alt
483.9 km
Semi-major
6,861.1 km
B*
6.2194e-4
RAAN
294.6868°
Arg perigee
275.4493°
Mean anomaly
84.6209°
Rev number
6,175

§ Raw data

STARLINK-337891 63657U 25083Z   26144.89949402  .00016900  00000+0  62194-3 0  99972 63657  43.0001 294.6868 0001315 275.4493  84.6209 15.27595143 61754

JSON: /api/v1/satellites/63657 · /tle

For live sub-satellite position, see the globe view (requires WebGL).

§ Visibility from observer

Set your observer location to see the next 7 days of passes ≥ 10°. The values pass through the URL so the page stays shareable.

No JS? Fill the form by hand. The geolocation button needs JavaScript.